PELICAN-3009

导读

PELICAN 3009是美国Planet公司鹈鹕(Pelican)新一代高分辨率遥感卫星星座成员,于2025年1月14日发射入轨,运行于475公里高度的太阳同步轨道。作为小型遥感卫星,它整星重量约120公斤,搭载自主研发推帚式光学载荷,可提供0.3米全色分辨率影像,依托AI在轨计算能力,将关键数据交付压缩至数分钟,为商业、政府用户提供高频次高清晰度地球观测服务,助力地理情报、环境监测等领域应用。

基本信息
目录编号:
62631
目录名称:
PELICAN-2 3009
国际标识:
2025-009Y
轨道中心:
EARTH
卫星名称:
PELICAN 3009
卫星全名:
PELICAN-3009
卫星状态:
在轨 (已飞行599 天)
发射日期:
2025-01-14 UTC
国别 :
美国 (US)
星等 :
--
轨道信息
数据来源 国际轨道数据
星历时间: 2026-09-05T00:09:25+0800
15小时前
查看轨道信息
半长轴: 6822.199km
偏心率: 0.0001345
轨道倾角: 97.203°
近地点辐角 55.246°
升交点赤经 337.482°
平近点角 304.892°
近地点: 443.144km
远地点: 444.98km
周期: 93.464分钟
每日圈数: 15.406935
详细信息
使用方式:
暂无
2D轨道图
3D轨道图
轨道高度分析图
轨道倾角分析图
轨道综合分析图
查看轨道综合分析图